Regional Weather Roundup
Issued by NWS Charleston, WV

Home | Current Version | Previous Version | Graphics & Text | Print | Product List | Glossary On
Versions: 1 2 3 4 5 6 7 8 9 10 11 12 13 14 15 16 17 18 19 20 21 22 23 24 25 26
000
ASUS41 KRLX 221810
RWRRLX
West Virginia Regional Weather Roundup
National Weather Service Charleston WV
200 PM EDT TUE MAY 22 2018

Note: "fair" indicates few or no clouds below 12,000 feet with no
significant weather and/or obstructions to visibility.

WVZ003-221900-
Northern Panhandle of West Virginia

CITY           SKY/WX    TMP DP  RH WIND       PRES   REMARKS
WHEELING       CLOUDY    73  67  81 S5        30.04F
$$

WVZ009-221900-
Northwest West Virginia

CITY           SKY/WX    TMP DP  RH WIND       PRES   REMARKS
PARKERSBURG    PTSUNNY   75  69  81 VRB5      30.07F
$$

WVZ006-221900-
Western West Virginia

CITY           SKY/WX    TMP DP  RH WIND       PRES   REMARKS
HUNTINGTON     FAIR      82  65  56 SW13      30.05F
$$

WVZ015-221900-
West Central West Virginia

CITY           SKY/WX    TMP DP  RH WIND       PRES   REMARKS
CHARLESTON     PTSUNNY   82  68  62 SW8       30.05F THUNDER
$$

WVZ022-031-221900-
North Central West Virginia

CITY           SKY/WX    TMP DP  RH WIND       PRES   REMARKS
CLARKSBURG     CLOUDY    72  65  78 SW5       30.07F
MORGANTOWN     CLOUDY    70  68  93 S7        30.07F
$$

WVZ025-035-042-045-221900-
Southern West Virginia

CITY           SKY/WX    TMP DP  RH WIND       PRES   REMARKS
BECKLEY        LGT RAIN  68  65  90 W7        30.14F FOG
LOGAN          RAIN      68  64  88 S8G21     30.10S VSB 1
BLUEFIELD      PTSUNNY   74  60  61 W8        30.16F
LEWISBURG      CLOUDY    70  61  74 NW5       30.14F
$$

WVZ047-221900-
Northern Mountains of West Virginia

CITY           SKY/WX    TMP DP  RH WIND       PRES   REMARKS
ELKINS         PTSUNNY   74  62  66 NW7G18    30.11F
$$

WVZ052-221900-
Eastern Panhandle of West Virginia

CITY           SKY/WX    TMP DP  RH WIND       PRES   REMARKS
MARTINSBURG    PTSUNNY   77  67  71 SE3       30.01F
PETERSBURG     PTSUNNY   77  63  62 W13       30.04F
$$




USA.gov is the U.S. government's official web portal to all federal, state and local government web resources and services.